Weather History for PADE - February, 2014

Change the Weather History Date:

Saturday, February 1, 2014

  Actual Average (PAOT) Record (PAOT)
Temperature  
Mean Temperature 28 °F -3 °F  
Max Temperature 48 °F - 36 °F (1994)
Min Temperature 9 °F -9 °F -46 °F (2012)
Degree Days  
Heating Degree Days 36 68  
Month to date heating degree days 68  
Since 1 July heating degree days 8467  
Cooling Degree Days 0    
Month to date cooling degree days  
Year to date cooling degree days  
Moisture  
Dew Point 17 °F    
Average Humidity 46    
Maximum Humidity 84    
Minimum Humidity 29    
Precipitation  
Precipitation 0.00 in 0.02 in 0.30 in (1932)
Month to date precipitation 0.02  
Year to date precipitation 0.64  
Snow  
Snow 0.00 in 0.30 in 6.00 in (1932)
Month to date snowfall 0.3  
Since 1 July snowfall 38.3  
Snow Depth -    
Sea Level Pressure  
Sea Level Pressure 30.50 in    
Wind  
Wind Speed 6 mph (SW)    
Max Wind Speed 16 mph    
Max Gust Speed -    
Visibility 9 miles    
Events      
T = Trace of Precipitation, MM = Missing Value Source: NWS Daily Summary

Daily Weather History Graph

Daily Weather History Graph

Search for Another Location

Airport or City:

Trip Planner

Search our weather history database for the weather conditions in past years. The results will help you decide how hot, cold, wet, or windy it might be!

Date:

Astronomy

Feb. 01, 2014 Rise Set
Actual Time 10:46 AM AKST 5:23 PM AKST
Civil Twilight 9:43 AM AKST 6:27 PM AKST
Nautical Twilight 8:39 AM AKST 7:31 PM AKST
Astronomical Twilight 7:39 AM AKST 8:31 PM AKST
Moon 10:22 AM AKST (2/1) 9:47 PM AKST (2/1)
Length of Visible Light 8h 43m
Length of Day
6h 37m
Waxing Crescent, 6% of the Moon is Illuminated
Feb 1
Waxing Crescent
Feb 6
First Quarter
Feb 14
Full
Feb 22
Last Quarter
Feb 28
New

Hourly Weather History & Observations

Time (AKST) Temp. Windchill Dew Point Humidity Pressure Visibility Wind Dir Wind Speed Gust Speed Precip Events Conditions
12:53 AM 30.0 °F 26.5 °F 18.0 °F 61% 30.24 in 10.0 mi WSW 3.5 mph - N/A   Clear
1:53 AM 33.1 °F 30.0 °F 16.0 °F 50% 30.27 in 10.0 mi South 3.5 mph - N/A   Clear
2:53 AM 42.1 °F 37.7 °F 17.1 °F 37% 30.28 in 10.0 mi SSW 6.9 mph - N/A   Scattered Clouds
3:53 AM 28.9 °F 21.9 °F 16.0 °F 58% 30.31 in 10.0 mi WSW 6.9 mph - N/A   Overcast
4:53 AM 37.0 °F 34.5 °F 19.9 °F 50% 30.33 in 10.0 mi SSE 3.5 mph - N/A   Overcast
5:53 AM 44.1 °F 40.8 °F 21.0 °F 40% 30.34 in 9.0 mi SSW 5.8 mph - N/A   Overcast
6:21 AM 28.4 °F - 21.2 °F 74% 30.35 in 10.0 mi Calm Calm - N/A   Overcast
6:53 AM 45.0 °F 43.5 °F 23.0 °F 42% 30.38 in 10.0 mi WSW 3.5 mph - N/A   Overcast
7:53 AM 46.0 °F 43.1 °F 24.1 °F 42% 30.40 in 10.0 mi WSW 5.8 mph - N/A   Overcast
8:08 AM 41.0 °F 39.0 °F 24.8 °F 53% 30.41 in 6.0 mi South 3.5 mph - N/A   Haze
8:12 AM 46.4 °F 44.3 °F 24.8 °F 43% 30.41 in 6.0 mi South 4.6 mph - N/A   Haze
8:27 AM 48.2 °F - 24.8 °F 40% 30.41 in 7.0 mi SSW 5.8 mph - N/A   Overcast
8:37 AM 48.2 °F - 24.8 °F 40% 30.41 in 8.0 mi SW 6.9 mph - N/A   Overcast
8:53 AM 44.1 °F 40.1 °F 24.1 °F 45% 30.43 in 10.0 mi WSW 6.9 mph - N/A   Overcast
9:33 AM 39.2 °F 32.5 °F 23.0 °F 52% 30.44 in 10.0 mi West 10.4 mph - N/A   Overcast
9:53 AM 41.0 °F 36.4 °F 23.0 °F 49% 30.45 in 10.0 mi West 6.9 mph - N/A   Overcast
10:15 AM 46.4 °F 41.9 °F 21.2 °F 37% 30.46 in 5.0 mi WNW 9.2 mph - N/A   Haze
10:29 AM 41.0 °F 35.2 °F 21.2 °F 45% 30.47 in 7.0 mi West 9.2 mph - N/A   Overcast
10:53 AM 37.9 °F 30.0 °F 21.0 °F 51% 30.48 in 10.0 mi West 12.7 mph - N/A   Overcast
11:53 AM 37.0 °F 27.7 °F 19.0 °F 48% 30.52 in 10.0 mi WNW 16.1 mph - N/A   Overcast
12:08 PM 35.6 °F 25.9 °F 19.4 °F 52% 30.52 in 8.0 mi WNW 16.1 mph - N/A   Overcast
12:24 PM 35.6 °F 26.2 °F 19.4 °F 52% 30.53 in 10.0 mi West 15.0 mph - N/A   Overcast
12:53 PM 34.0 °F 24.6 °F 19.0 °F 54% 30.55 in 7.0 mi West 13.8 mph - N/A   Overcast
1:53 PM 37.0 °F 29.8 °F 18.0 °F 46% 30.58 in 10.0 mi West 10.4 mph - N/A   Overcast
2:53 PM 39.0 °F 33.4 °F 18.0 °F 43% 30.61 in 10.0 mi WSW 8.1 mph - N/A   Overcast
3:53 PM 41.0 °F 37.1 °F 18.0 °F 40% 30.62 in 10.0 mi SW 5.8 mph - N/A   Overcast
4:53 PM 44.1 °F 41.5 °F 17.1 °F 34% 30.63 in 10.0 mi SSW 4.6 mph - N/A   Overcast
5:53 PM 43.0 °F 40.3 °F 15.1 °F 32% 30.65 in 10.0 mi SSW 4.6 mph - N/A   Mostly Cloudy
6:11 PM 37.4 °F 30.8 °F 12.2 °F 36% 30.66 in 10.0 mi SSW 9.2 mph - N/A   Scattered Clouds
6:21 PM 35.6 °F 30.7 °F 12.2 °F 38% 30.66 in 10.0 mi SSW 5.8 mph - N/A   Mostly Cloudy
6:36 PM 35.6 °F 29.2 °F 12.2 °F 38% 30.66 in 10.0 mi SSW 8.1 mph - N/A   Scattered Clouds
6:53 PM 35.1 °F 28.6 °F 10.9 °F 37% 30.66 in 10.0 mi South 8.1 mph - N/A   Clear
7:53 PM 23.0 °F 14.7 °F 7.0 °F 50% 30.68 in 10.0 mi WSW 6.9 mph - N/A   Clear
8:53 PM 9.0 °F - 5.0 °F 84% 30.70 in 10.0 mi Calm Calm - N/A   Clear
9:53 PM 17.1 °F 10.0 °F 3.0 °F 54% 30.71 in 10.0 mi WSW 4.6 mph - N/A   Clear
10:53 PM 27.0 °F 23.0 °F 1.0 °F 33% 30.72 in 10.0 mi SW 3.5 mph - N/A   Clear
11:53 PM 28.9 °F 22.8 °F -0.0 °F 29% 30.74 in 10.0 mi WSW 5.8 mph - N/A   Clear